Temperature
29 30 31 31 31 31 31 31 31 31 31 31 31 31 30 30 29 28 27 26 26 25 24 23 22 21 21 20 20 20 20 20 20 19 19 19 19 19 19 19 19 19 18 18
30 30 31 31 31 31 31 31 31 31 31 31 31 31 31 30 29 28 28 27 26 25 24 23 22 22 21 20 20 20 20 20 19 19 19 19 19 19 19 19 19 19 19 18
30 31 31 31 31 30 31 31 31 31 31 31 31 31 31 30 29 28 28 27 27 26 25 23 22 22 21 21 20 20 20 20 19 19 19 19 19 19 18 18 19 19 18 18
30 31 30 30 31 31 31 31 31 31 31 31 31 30 31 31 30 29 28 27 27 26 25 24 23 22 21 21 21 20 20 20 20 20 19 19 19 19 19 18 18 18 18 18
30 30 30 30 31 31 31 31 31 31 31 31 31 31 32 31 30 30 29 28 27 26 25 24 23 22 22 21 21 20 20 20 20 20 19 19 19 19 18 18 18 18 18 18
30 31 31 31 31 31 31 30 30 31 31 30 31 30 31 32 31 31 30 28 27 26 25 24 23 22 22 21 21 20 20 20 20 20 19 19 19 19 19 18 18 18 18 18
30 30 31 31 30 30 30 30 30 30 30 30 31 30 31 32 31 31 30 28 27 26 25 24 23 22 22 21 21 20 20 20 20 20 19 19 19 19 19 19 18 18 18 18
29 29 30 30 31 30 31 31 30 29 30 30 30 30 32 31 30 29 29 28 27 26 25 24 23 22 22 21 21 21 20 20 20 20 20 19 19 19 19 18 18 18 18 18
30 30 31 30 31 31 30 31 32 31 30 30 31 31 32 31 30 30 29 28 27 26 25 24 23 23 22 22 21 21 20 20 20 20 20 19 19 19 19 18 18 18 18 18
31 29 30 30 30 30 31 31 31 30 29 29 30 31 31 30 30 30 29 28 27 26 25 24 23 23 22 21 21 21 20 20 20 19 19 19 19 19 19 18 18 18 18 18
31 30 30 30 29 30 29 30 30 30 30 29 29 30 31 30 30 30 29 28 26 25 25 24 23 22 22 21 21 20 20 19 19 19 19 19 19 18 18 18 18 18 18 18
30 30 29 30 31 30 30 31 30 29 29 29 30 30 31 30 30 29 28 27 25 25 24 24 23 22 22 21 21 20 20 19 19 19 19 19 19 18 18 18 18 18 18 18
29 29 28 29 29 29 30 30 30 31 30 30 29 30 30 29 29 28 27 26 24 24 23 23 23 22 21 21 21 21 20 20 19 19 19 19 19 18 18 18 18 18 18 18
28 29 29 29 29 30 29 30 30 30 30 30 30 30 30 29 29 28 26 25 24 23 22 22 22 21 21 21 20 20 20 20 19 19 19 19 19 19 18 18 18 18 18 18
29 29 29 30 30 30 30 30 29 29 30 30 29 29 30 29 28 27 25 24 24 23 22 22 21 21 20 20 20 20 20 19 19 19 19 19 19 18 18 18 18 17 17 17
28 28 28 28 29 29 29 29 29 29 29 29 29 29 30 28 27 26 25 24 23 23 22 21 21 20 20 20 20 20 19 19 19 19 18 19 18 18 18 18 18 17 17 17
28 27 27 28 28 28 28 29 29 29 29 29 29 29 29 28 27 25 24 24 23 23 22 21 21 20 20 20 20 19 19 19 19 19 19 18 18 18 17 17 17 17 16 16
26 26 27 28 27 26 28 29 29 28 28 28 28 28 27 27 25 24 24 23 22 22 22 21 21 20 20 20 20 19 19 19 19 18 18 18 18 17 17 17 17 16 16 16
27 26 27 27 27 27 27 27 27 27 27 27 27 27 26 25 25 24 23 22 22 22 21 21 20 20 20 20 19 19 19 18 18 18 18 18 17 17 17 17 16 16 16 16
26 25 26 26 26 26 27 27 26 26 26 26 26 26 25 25 26 25 22 21 21 21 20 20 20 20 20 19 19 19 18 18 18 18 18 17 17 17 16 16 16 16 16 15
25 24 25 26 26 27 26 25 25 25 25 24 24 24 23 24 24 22 21 20 20 20 19 19 19 19 19 19 18 18 18 18 18 17 17 17 16 16 16 16 15 15 15 15
25 25 25 25 25 25 25 25 25 24 23 23 23 22 22 22 21 20 20 19 19 19 19 19 18 18 18 18 18 18 17 17 17 17 16 16 16 16 16 15 15 15 15 14
24 25 25 25 25 23 23 23 23 22 22 22 21 21 21 21 20 19 19 19 18 18 18 18 18 18 17 17 17 17 17 17 17 16 16 16 16 16 15 15 15 15 14 14
23 22 23 23 24 23 22 22 21 21 21 20 20 20 20 20 19 19 18 18 18 18 18 17 17 17 17 17 17 17 16 16 16 16 16 15 15 15 15 15 15 14 14 14
22 22 23 22 23 22 21 21 20 20 20 20 19 19 19 19 18 18 17 17 17 17 17 17 17 17 16 16 16 16 16 16 16 15 15 15 15 15 14 14 14 14 14 14
21 21 22 22 22 22 21 20 20 19 19 19 19 19 18 18 18 17 17 17 17 17 17 16 16 16 16 16 16 16 16 15 15 15 15 15 15 14 14 14 14 14 14 14
Wind_Speed
7 9 8 7 7 6 5 4 4 2 2 4 4 4 4 6 7 7 8 9 9 8 8 9 9 9 9 9 9 9 9 9 7 5 4 4 4 3 3 3 3 2 2 1
8 10 7 6 6 7 8 7 5 3 1 4 5 5 5 6 7 7 8 9 9 9 9 9 9 10 10 10 9 9 9 9 8 6 4 3 3 3 3 2 2 2 2 1
11 4 4 7 8 9 9 8 6 5 4 5 5 5 5 7 7 7 7 8 9 9 10 10 10 10 10 10 10 9 9 9 8 7 6 5 4 3 3 3 2 2 2 2
9 6 6 8 9 9 8 6 6 6 7 4 5 5 4 6 8 9 9 9 10 10 10 10 10 10 11 11 10 10 10 9 8 8 6 6 5 4 3 2 2 2 2 3
7 7 8 9 8 8 5 3 5 7 8 7 6 7 3 6 7 8 9 9 10 10 10 10 10 10 10 10 10 10 10 9 9 8 7 6 5 4 3 3 3 2 2 2
8 6 7 6 5 6 5 5 6 8 9 9 6 7 4 3 5 6 8 8 9 9 10 10 10 10 9 10 10 10 10 9 9 9 8 8 6 5 4 3 2 2 2 2
10 9 7 6 7 7 9 8 6 7 7 6 3 6 4 0 2 4 5 7 8 9 10 10 10 11 10 11 10 10 10 9 9 9 8 8 7 6 5 4 3 3 2 2
11 10 9 8 8 7 10 11 8 6 6 4 4 5 2 2 1 2 4 6 8 9 10 10 10 10 10 11 10 10 10 9 9 8 7 7 7 5 4 5 4 3 2 2
9 8 8 7 7 8 9 10 9 8 8 7 4 4 4 4 3 4 5 6 7 8 9 9 10 10 10 10 10 10 10 9 9 8 7 7 6 5 5 5 5 4 3 3
7 7 8 8 8 8 8 7 7 8 7 8 6 7 3 3 3 4 5 6 6 7 7 9 9 10 9 9 10 10 10 9 8 8 8 7 7 6 6 5 5 4 4 3
9 8 8 9 10 10 9 10 8 8 8 8 7 3 2 0 1 3 4 4 5 6 6 7 8 8 9 9 10 10 9 9 8 7 7 6 6 6 6 5 5 5 4 4
10 8 9 10 7 6 10 11 11 9 8 9 10 4 4 1 0 1 3 3 3 4 4 6 8 9 9 10 10 10 9 9 8 8 7 6 6 6 6 6 5 5 5 5
9 8 9 10 10 9 10 11 12 12 10 10 11 5 5 2 1 1 2 3 3 4 5 6 7 8 9 9 9 9 9 9 8 8 7 7 6 6 5 5 5 5 5 4
8 11 12 11 7 8 10 11 11 13 11 10 11 8 3 2 1 1 2 3 4 4 5 6 7 7 7 7 7 7 7 7 8 8 7 7 6 5 5 4 4 4 5 5
8 12 11 11 7 8 10 11 12 14 13 11 8 8 5 3 2 2 2 3 4 5 6 7 7 7 7 7 7 7 7 7 7 8 7 7 6 6 5 4 4 4 5 5
8 9 10 12 10 10 11 11 12 13 12 12 10 8 4 2 2 2 3 4 5 5 5 6 7 7 7 7 7 6 6 6 7 7 7 6 6 6 5 5 5 4 4 4
8 8 10 11 10 10 13 11 12 11 10 11 11 8 3 3 3 3 3 4 5 5 5 6 6 7 7 7 7 7 6 6 6 6 6 6 6 5 5 5 4 4 4 4
9 9 8 9 9 13 5 3 7 9 8 7 7 5 5 4 3 3 3 4 4 5 5 5 6 6 7 7 7 6 7 7 7 6 5 5 5 5 4 4 4 4 4 4
9 9 9 9 12 10 5 4 5 7 7 4 6 5 5 3 3 3 1 2 3 4 5 5 5 6 6 6 7 7 7 6 6 6 5 5 5 5 5 5 5 4 4 4
7 9 10 10 12 12 5 4 3 6 7 2 3 4 3 4 5 1 1 2 2 3 3 4 5 6 6 6 6 7 6 6 6 5 5 5 5 5 5 5 4 3 3 4
9 9 12 13 12 7 1 3 5 8 3 0 2 2 2 3 4 2 1 1 2 2 3 4 4 5 5 6 6 6 5 5 5 4 4 4 4 5 4 4 4 4 3 3
9 8 9 10 12 7 2 4 4 1 3 1 1 1 2 2 1 1 1 2 3 3 4 4 4 5 5 5 5 5 4 4 4 4 4 4 4 4 4 4 4 4 3 4
6 5 5 5 3 3 2 1 1 1 1 2 3 3 2 2 1 1 1 2 3 4 4 4 5 5 4 4 4 4 4 3 4 4 3 3 4 4 3 4 4 4 4 4
4 1 3 3 3 1 1 1 1 1 1 2 3 2 2 1 1 2 2 2 3 3 3 4 4 4 4 3 3 3 3 4 4 4 3 3 4 4 3 3 3 3 4 4
3 3 4 5 4 2 2 1 1 1 1 2 2 2 1 1 2 2 3 3 3 3 3 3 3 3 3 2 2 2 3 4 4 4 4 4 4 3 3 3 2 3 2 2
5 5 6 5 3 3 2 1 2 2 2 2 3 3 2 1 2 3 3 3 3 3 2 2 2 2 2 2 2 2 3 4 4 4 4 4 3 3 3 3 2 2 1 1
Wind_Direction
202 221 219 221 235 258 266 266 270 275 274 269 260 249 219 196 202 197 192 188 187 186 178 178 182 179 174 171 172 178 179 170 173 173 177 170 168 171 166 165 152 165 174 175
212 225 231 236 236 235 243 251 253 251 257 274 272 262 227 207 207 202 197 193 192 188 179 178 182 181 180 175 174 176 179 175 179 175 176 175 162 177 173 170 157 178 180 201
226 225 212 226 224 228 236 247 257 273 277 241 261 235 206 196 201 200 203 199 195 192 187 181 183 185 184 182 183 182 179 177 181 175 174 167 165 183 179 183 182 187 192 203
232 222 220 225 228 236 235 239 252 256 261 256 261 272 208 198 200 204 203 199 196 194 191 186 184 186 188 188 186 185 181 180 179 176 181 182 184 191 184 189 167 183 194 207
215 213 222 230 232 237 247 234 244 252 258 262 248 272 224 191 207 205 203 201 198 193 190 188 187 187 187 185 185 180 179 180 178 178 180 189 194 193 181 179 167 200 193 200
228 219 233 237 229 223 204 213 226 240 249 252 251 264 263 200 216 204 194 196 196 191 188 187 185 182 185 182 181 176 175 180 180 182 184 193 194 191 181 192 187 201 197 194
209 210 207 214 211 196 211 228 232 233 232 247 217 253 271 174 228 226 202 191 190 188 185 184 183 182 182 181 180 176 174 179 183 186 190 194 195 191 192 200 203 218 213 201
210 206 198 205 221 215 217 233 247 260 259 252 201 250 257 136 190 203 199 186 182 185 186 185 184 182 181 179 177 177 176 179 182 184 188 192 194 198 196 205 218 219 229 226
217 209 182 201 216 227 214 231 257 271 267 266 250 250 228 184 205 196 188 177 175 181 184 185 183 183 180 178 177 176 175 179 182 181 180 186 194 200 198 197 212 218 224 218
227 222 195 189 202 219 244 235 236 249 261 264 259 250 254 193 211 191 186 177 169 175 182 185 184 182 180 178 173 173 176 180 184 184 187 183 189 194 200 209 208 217 216 214
229 225 199 195 214 212 206 218 233 247 260 270 272 274 57 169 237 210 191 174 170 176 183 183 179 178 176 173 172 174 174 179 184 188 190 187 189 191 194 197 201 204 208 205
218 233 224 216 210 234 224 228 226 239 248 258 274 278 99 95 29 186 172 156 157 165 172 172 167 168 170 171 173 173 176 180 181 181 183 187 188 190 193 191 195 195 198 203
202 226 224 216 205 207 225 230 235 246 251 252 257 255 117 114 100 143 162 152 153 157 162 164 163 165 168 171 173 174 179 181 178 176 179 182 186 188 192 191 191 194 196 201
215 230 235 238 232 212 221 225 230 240 249 252 253 267 251 253 241 191 182 168 159 165 171 169 162 165 166 169 171 174 183 181 180 179 179 183 189 190 189 191 191 196 196 198
221 234 236 249 248 236 233 230 226 236 250 261 263 264 278 291 279 248 211 188 173 171 170 168 166 166 169 170 172 175 179 180 182 182 185 184 185 184 183 189 195 204 209 208
223 238 233 238 237 237 241 237 232 235 244 250 260 266 284 304 254 226 210 203 197 189 179 172 169 169 174 177 177 175 180 180 182 187 189 185 184 182 185 192 198 205 213 218
216 226 233 234 228 237 239 233 231 231 239 248 252 260 269 267 252 240 222 213 200 190 185 179 177 177 180 177 174 175 175 173 175 183 186 184 186 190 195 199 201 212 222 223
223 229 233 236 223 237 234 205 225 232 240 249 259 279 283 274 254 246 236 217 200 183 179 180 178 179 180 176 173 175 171 175 179 184 185 187 189 195 196 198 207 217 224 227
227 222 233 234 233 235 210 193 214 227 236 252 261 271 276 250 227 222 215 214 203 185 182 182 180 176 169 167 165 168 172 175 180 182 186 190 196 200 203 204 209 214 221 223
209 219 233 234 241 240 223 159 199 226 228 236 265 272 264 229 244 240 90 202 195 170 165 167 168 163 160 160 162 169 175 176 183 186 190 197 203 207 207 207 210 211 214 218
199 211 229 237 241 242 117 147 186 227 237 76 255 266 261 255 305 1 49 163 163 146 143 150 153 153 154 158 162 170 175 182 180 180 188 197 204 208 209 211 213 212 213 217
221 221 223 234 238 233 101 169 215 309 32 12 303 288 283 289 313 63 104 134 140 139 135 136 137 138 144 153 160 169 175 177 176 181 195 205 211 220 207 206 211 208 211 211
234 254 242 242 242 65 111 137 83 26 351 330 309 303 280 265 225 163 141 135 141 144 140 141 141 135 137 148 164 175 172 171 173 181 196 207 210 216 215 217 217 215 217 231
204 282 241 226 204 169 151 97 63 7 337 324 322 317 300 270 226 191 165 154 156 143 140 142 139 135 139 154 172 181 172 170 176 187 193 198 202 206 204 230 235 238 237 239
257 221 230 226 215 201 199 210 324 350 344 339 333 330 325 269 235 204 186 177 172 160 151 150 157 156 157 167 183 194 181 181 190 194 197 202 201 194 199 213 250 249 267 273
241 243 245 248 247 255 243 277 297 314 324 320 314 313 308 264 230 219 202 192 179 173 164 174 185 179 176 177 189 196 197 196 203 209 213 211 203 195 204 201 206 98 214 132
Height
1498 1495 1493 1491 1490 1491 1491 1493 1495 1492 1489 1491 1490 1490 1491 1495 1497 1499 1502 1505 1507 1510 1513 1515 1517 1519 1520 1522 1523 1525 1527 1528 1530 1532 1533 1534 1536 1537 1538 1538 1538 1539 1540 1540
1495 1492 1488 1488 1489 1491 1492 1494 1493 1490 1489 1490 1489 1489 1487 1491 1494 1497 1499 1502 1505 1508 1511 1513 1515 1517 1518 1520 1521 1523 1525 1527 1529 1530 1532 1534 1535 1536 1537 1538 1538 1538 1539 1539
1489 1486 1488 1490 1490 1492 1491 1492 1491 1492 1489 1487 1489 1489 1487 1487 1492 1495 1497 1499 1502 1505 1508 1511 1513 1515 1516 1518 1520 1522 1524 1525 1527 1529 1531 1533 1534 1536 1537 1537 1538 1538 1538 1539
1486 1486 1488 1489 1488 1488 1491 1486 1488 1490 1492 1489 1489 1495 1485 1483 1487 1491 1494 1496 1499 1502 1505 1508 1510 1512 1515 1517 1519 1520 1522 1524 1526 1528 1530 1532 1533 1535 1536 1537 1537 1537 1538 1538
1486 1485 1487 1488 1486 1485 1486 1485 1487 1488 1489 1490 1487 1491 1483 1479 1484 1485 1488 1492 1495 1499 1502 1505 1507 1510 1513 1515 1517 1519 1520 1523 1525 1527 1529 1530 1532 1534 1535 1536 1536 1536 1537 1537
1482 1484 1484 1483 1483 1485 1485 1488 1488 1486 1485 1498 1489 1492 1487 1475 1478 1479 1484 1489 1493 1496 1499 1502 1505 1508 1511 1513 1515 1517 1519 1521 1523 1525 1527 1529 1530 1532 1533 1534 1535 1535 1536 1536
1485 1482 1482 1483 1484 1484 1485 1490 1498 1501 1500 1496 1483 1488 1483 1473 1475 1478 1481 1486 1490 1494 1497 1500 1503 1505 1508 1511 1513 1515 1517 1519 1522 1524 1525 1527 1528 1530 1531 1532 1533 1534 1535 1535
1486 1487 1480 1480 1481 1482 1482 1484 1498 1507 1502 1490 1486 1487 1475 1472 1476 1479 1481 1484 1488 1492 1494 1497 1500 1502 1505 1508 1510 1513 1515 1518 1520 1522 1523 1525 1526 1528 1529 1530 1531 1532 1532 1533
1477 1481 1475 1477 1478 1478 1482 1481 1475 1484 1486 1491 1483 1478 1471 1472 1475 1477 1479 1483 1486 1490 1492 1495 1498 1500 1503 1506 1508 1511 1513 1515 1518 1520 1521 1523 1524 1525 1527 1527 1529 1529 1530 1530
1470 1480 1474 1476 1478 1478 1476 1475 1480 1486 1500 1501 1488 1482 1476 1473 1472 1474 1477 1480 1485 1488 1491 1493 1496 1498 1501 1503 1506 1509 1511 1513 1515 1518 1519 1521 1522 1523 1524 1525 1526 1527 1527 1528
1468 1477 1476 1476 1478 1476 1480 1480 1479 1480 1481 1494 1496 1483 1466 1470 1471 1473 1476 1480 1484 1486 1489 1491 1494 1496 1499 1501 1504 1506 1509 1511 1513 1516 1517 1518 1520 1521 1521 1522 1523 1524 1525 1526
1469 1470 1476 1473 1469 1470 1471 1472 1476 1486 1488 1484 1486 1481 1466 1469 1470 1473 1477 1481 1484 1486 1488 1490 1492 1494 1497 1499 1502 1504 1507 1509 1511 1513 1515 1516 1517 1519 1519 1520 1521 1522 1522 1523
1469 1472 1483 1481 1477 1474 1472 1470 1470 1470 1475 1480 1486 1479 1467 1470 1472 1475 1477 1481 1484 1485 1487 1488 1490 1492 1495 1497 1500 1503 1505 1507 1509 1511 1513 1514 1515 1516 1517 1518 1519 1519 1520 1521
1468 1467 1473 1478 1471 1466 1471 1470 1470 1472 1475 1477 1476 1472 1467 1468 1471 1475 1478 1480 1483 1485 1486 1487 1489 1491 1493 1496 1498 1500 1503 1505 1507 1509 1510 1512 1513 1514 1515 1516 1516 1517 1518 1518
1466 1466 1465 1462 1460 1462 1465 1467 1468 1470 1469 1472 1470 1469 1466 1467 1471 1475 1477 1480 1482 1484 1485 1486 1488 1490 1492 1494 1496 1498 1500 1503 1505 1507 1508 1509 1510 1512 1512 1513 1514 1514 1515 1515
1463 1465 1465 1467 1462 1463 1465 1464 1465 1466 1466 1466 1467 1468 1465 1469 1472 1475 1476 1478 1480 1482 1484 1485 1486 1488 1490 1492 1494 1496 1498 1501 1503 1504 1506 1507 1508 1509 1509 1510 1510 1511 1511 1512
1462 1465 1469 1467 1463 1466 1470 1463 1462 1464 1462 1463 1467 1466 1465 1468 1471 1473 1475 1476 1478 1480 1482 1484 1485 1486 1488 1490 1491 1494 1496 1498 1500 1501 1503 1504 1505 1505 1506 1507 1507 1508 1508 1509
1464 1466 1464 1464 1470 1481 1462 1456 1458 1461 1462 1462 1463 1465 1467 1469 1471 1473 1474 1475 1477 1479 1480 1482 1484 1485 1487 1488 1490 1492 1494 1496 1497 1499 1500 1501 1501 1502 1503 1504 1504 1505 1505 1506
1460 1464 1464 1463 1468 1464 1460 1458 1460 1463 1463 1463 1464 1465 1467 1468 1470 1471 1473 1474 1476 1477 1478 1480 1482 1484 1485 1487 1488 1490 1492 1494 1495 1496 1496 1498 1499 1499 1500 1501 1501 1502 1502 1502
1460 1462 1462 1463 1468 1470 1458 1457 1461 1463 1466 1464 1465 1465 1466 1467 1465 1467 1471 1473 1474 1475 1476 1478 1479 1481 1483 1484 1486 1488 1489 1491 1492 1493 1494 1495 1496 1497 1497 1497 1498 1499 1499 1499
1461 1463 1462 1461 1463 1457 1456 1459 1462 1469 1466 1464 1465 1466 1467 1467 1467 1469 1470 1471 1472 1474 1475 1476 1477 1479 1480 1482 1484 1485 1487 1488 1489 1490 1491 1493 1493 1494 1494 1495 1495 1496 1496 1496
1456 1457 1460 1459 1463 1463 1459 1459 1461 1464 1465 1465 1466 1467 1467 1468 1468 1469 1469 1470 1471 1472 1473 1474 1475 1477 1478 1479 1481 1483 1484 1485 1486 1487 1489 1490 1491 1491 1492 1492 1492 1492 1493 1493
1454 1453 1451 1454 1458 1460 1460 1461 1464 1464 1465 1466 1466 1466 1467 1467 1468 1469 1469 1469 1469 1470 1471 1472 1474 1475 1476 1477 1479 1481 1482 1483 1484 1485 1486 1487 1487 1488 1488 1489 1490 1490 1490 1491
1455 1458 1456 1457 1457 1460 1462 1463 1464 1465 1466 1466 1466 1466 1466 1466 1467 1467 1468 1468 1469 1469 1470 1471 1472 1473 1474 1475 1477 1478 1479 1480 1481 1482 1483 1484 1484 1485 1485 1486 1486 1487 1488 1488
1456 1458 1456 1458 1459 1461 1462 1463 1464 1465 1465 1465 1465 1465 1465 1465 1465 1466 1467 1467 1468 1468 1469 1469 1470 1471 1472 1473 1474 1475 1475 1476 1478 1479 1480 1481 1481 1482 1482 1483 1483 1484 1484 1484
1458 1458 1458 1456 1459 1460 1462 1463 1464 1464 1464 1464 1464 1464 1464 1464 1464 1464 1465 1466 1466 1467 1467 1468 1468 1470 1470 1471 1471 1472 1473 1474 1475 1476 1476 1477 1478 1479 1479 1480 1480 1479 1481 1480